Location: Antioch
(38.0049°N, 121.8058°W)
Time: 03:16:31
(UTC+00:00)

Cosmos 2208 Rocket - Pass Details

Date: 25 May 2026
Orbit: 751 x 800 km, 74.0° (Epoch: 9 June)

Event Time Altitude Azimuth Distance (km) Brightness Sun altitude
Exits shadow 09:39:45 12° 292° (WNW) 2,160 6.3 -26.9°
Maximum altitude 09:40:45 13° 304° (NW) 2,120 6.4 -26.8°
Drops below altitude 10° 09:43:03 10° 330° (NNW) 2,305 6.9 -26.6°
Sets 09:46:54 0° 359° (N) 3,225 8.2 -26.3°
